TimeEDT,TemperatureF,Dew PointF,Humidity,Sea Level PressureIn,VisibilityMPH,Wind Direction,Wind SpeedMPH,Gust SpeedMPH,PrecipitationIn,Events,Conditions,WindDirDegrees,DateUTC
12:15 AM,48.2,48.2,100,30.03,2.5,East,3.5,-,N/A,,Overcast,80,2013-05-21 04:15:00
12:35 AM,48.2,48.2,100,30.03,2.0,NE,3.5,-,N/A,,Overcast,50,2013-05-21 04:35:00
12:55 AM,48.2,48.2,100,30.03,5.0,NE,4.6,-,N/A,,Overcast,50,2013-05-21 04:55:00
1:15 AM,48.2,48.2,100,30.03,5.0,Calm,Calm,-,N/A,,Overcast,0,2013-05-21 05:15:00
1:35 AM,48.2,48.2,100,30.03,4.0,NNE,3.5,-,N/A,,Overcast,20,2013-05-21 05:35:00
1:55 AM,48.2,48.2,100,30.02,8.0,ENE,3.5,-,N/A,,Overcast,70,2013-05-21 05:55:00
2:15 AM,48.2,48.2,100,30.02,5.0,Calm,Calm,-,N/A,,Overcast,0,2013-05-21 06:15:00
2:35 AM,48.2,48.2,100,30.02,7.0,Calm,Calm,-,N/A,,Overcast,0,2013-05-21 06:35:00
2:55 AM,48.2,48.2,100,30.01,3.0,Calm,Calm,-,N/A,,Overcast,0,2013-05-21 06:55:00
3:16 AM,48.2,48.2,100,30.01,9.0,ENE,4.6,-,N/A,,Overcast,60,2013-05-21 07:16:00
3:35 AM,48.2,48.2,100,30.02,10.0,Calm,Calm,-,N/A,,Overcast,0,2013-05-21 07:35:00
3:55 AM,48.2,48.2,100,30.02,2.5,Calm,Calm,-,N/A,,Overcast,0,2013-05-21 07:55:00
4:15 AM,48.2,46.4,93,30.02,6.0,Calm,Calm,-,N/A,,Overcast,0,2013-05-21 08:15:00
4:35 AM,48.2,48.2,100,30.01,10.0,East,4.6,-,N/A,,Overcast,90,2013-05-21 08:35:00
4:55 AM,48.2,48.2,100,30.01,10.0,SE,3.5,-,N/A,,Overcast,130,2013-05-21 08:55:00
5:15 AM,48.2,46.4,93,30.01,10.0,East,3.5,-,N/A,,Overcast,90,2013-05-21 09:15:00
5:35 AM,48.2,48.2,100,30.01,10.0,SE,3.5,-,N/A,,Overcast,130,2013-05-21 09:35:00
5:55 AM,48.2,48.2,100,30.02,3.0,East,4.6,-,N/A,,Overcast,100,2013-05-21 09:55:00
6:15 AM,48.2,46.4,93,30.03,3.0,ESE,3.5,-,N/A,,Overcast,110,2013-05-21 10:15:00
6:35 AM,48.2,46.4,93,30.02,10.0,East,5.8,-,N/A,,Overcast,90,2013-05-21 10:35:00
6:55 AM,48.2,48.2,100,30.04,10.0,Calm,Calm,-,N/A,,Overcast,0,2013-05-21 10:55:00
7:15 AM,48.2,48.2,100,30.04,10.0,East,3.5,-,N/A,,Overcast,90,2013-05-21 11:15:00
7:35 AM,48.2,48.2,100,30.03,10.0,East,8.1,-,N/A,,Overcast,90,2013-05-21 11:35:00
7:56 AM,48.2,48.2,100,30.02,10.0,East,4.6,-,N/A,,Overcast,100,2013-05-21 11:56:00
8:15 AM,48.2,48.2,100,30.03,10.0,East,5.8,-,N/A,,Overcast,90,2013-05-21 12:15:00
8:35 AM,48.2,48.2,100,30.04,10.0,East,6.9,-,N/A,,Overcast,90,2013-05-21 12:35:00
8:55 AM,48.2,48.2,100,30.03,10.0,Calm,Calm,-,N/A,,Overcast,0,2013-05-21 12:55:00
9:15 AM,48.2,48.2,100,30.06,10.0,Calm,Calm,-,N/A,,Overcast,0,2013-05-21 13:15:00
9:35 AM,48.2,48.2,100,30.01,10.0,East,6.9,-,N/A,,Overcast,90,2013-05-21 13:35:00
9:55 AM,48.2,48.2,100,30.05,10.0,NE,4.6,-,N/A,,Overcast,50,2013-05-21 13:55:00
10:15 AM,48.2,48.2,100,30.05,10.0,ENE,3.5,-,N/A,,Overcast,70,2013-05-21 14:15:00
10:35 AM,48.2,48.2,100,30.03,10.0,East,4.6,-,N/A,,Overcast,90,2013-05-21 14:35:00
10:55 AM,48.2,48.2,100,30.06,10.0,ENE,5.8,-,N/A,,Overcast,60,2013-05-21 14:55:00
11:15 AM,48.2,48.2,100,30.05,9.0,East,5.8,-,N/A,,Overcast,90,2013-05-21 15:15:00
11:35 AM,48.2,48.2,100,30.07,10.0,Calm,Calm,-,N/A,,Overcast,0,2013-05-21 15:35:00
11:55 AM,48.2,46.4,93,30.07,5.0,East,3.5,-,N/A,,Overcast,90,2013-05-21 15:55:00
12:15 PM,48.2,46.4,93,30.09,10.0,Calm,Calm,-,N/A,,Overcast,0,2013-05-21 16:15:00
12:35 PM,48.2,46.4,93,30.07,10.0,East,3.5,-,N/A,,Overcast,90,2013-05-21 16:35:00
12:55 PM,48.2,48.2,100,30.07,10.0,East,3.5,-,N/A,,Overcast,90,2013-05-21 16:55:00
1:15 PM,50.0,48.2,94,30.05,10.0,East,5.8,-,N/A,,Overcast,90,2013-05-21 17:15:00
1:35 PM,48.2,46.4,93,30.06,10.0,East,6.9,-,N/A,,Overcast,80,2013-05-21 17:35:00
1:55 PM,50.0,48.2,94,30.06,10.0,East,5.8,-,N/A,,Overcast,80,2013-05-21 17:55:00
2:15 PM,48.2,46.4,93,30.06,10.0,East,3.5,-,N/A,,Overcast,90,2013-05-21 18:15:00
2:35 PM,48.2,46.4,93,30.05,10.0,East,4.6,-,N/A,,Overcast,80,2013-05-21 18:35:00
2:55 PM,48.2,46.4,93,30.06,10.0,East,4.6,-,N/A,,Overcast,80,2013-05-21 18:55:00
3:15 PM,48.2,46.4,93,30.07,10.0,East,4.6,-,N/A,,Overcast,80,2013-05-21 19:15:00
3:35 PM,48.2,48.2,100,30.07,10.0,East,3.5,-,N/A,,Overcast,90,2013-05-21 19:35:00
3:55 PM,50.0,48.2,94,30.06,10.0,East,4.6,-,N/A,,Overcast,100,2013-05-21 19:55:00
4:15 PM,50.0,48.2,94,30.05,10.0,ESE,4.6,-,N/A,,Overcast,110,2013-05-21 20:15:00
4:35 PM,48.2,48.2,100,30.05,10.0,East,5.8,-,N/A,,Overcast,100,2013-05-21 20:35:00
4:55 PM,48.2,48.2,100,30.04,10.0,East,4.6,-,N/A,,Overcast,100,2013-05-21 20:55:00
5:15 PM,48.2,48.2,100,30.03,10.0,SE,6.9,-,N/A,,Overcast,130,2013-05-21 21:15:00
5:35 PM,50.0,48.2,94,30.02,10.0,SSE,8.1,-,N/A,,Overcast,160,2013-05-21 21:35:00
5:55 PM,50.0,48.2,94,30.03,10.0,SSE,5.8,-,N/A,,Overcast,160,2013-05-21 21:55:00
6:15 PM,50.0,48.2,94,30.05,10.0,North,4.6,-,N/A,,Overcast,10,2013-05-21 22:15:00
6:35 PM,48.2,48.2,100,30.06,10.0,NNE,4.6,-,N/A,,Overcast,30,2013-05-21 22:35:00
6:55 PM,48.2,48.2,100,30.06,10.0,ENE,3.5,-,N/A,,Overcast,70,2013-05-21 22:55:00
7:15 PM,48.2,48.2,100,30.08,10.0,NNE,4.6,-,N/A,,Overcast,30,2013-05-21 23:15:00
7:35 PM,48.2,48.2,100,30.08,10.0,North,4.6,-,N/A,,Overcast,10,2013-05-21 23:35:00
7:55 PM,48.2,48.2,100,30.07,10.0,ENE,3.5,-,N/A,,Overcast,70,2013-05-21 23:55:00
8:15 PM,48.2,46.4,93,30.07,10.0,ENE,3.5,-,N/A,,Overcast,70,2013-05-22 00:15:00
8:35 PM,48.2,48.2,100,30.07,10.0,East,4.6,-,N/A,,Overcast,90,2013-05-22 00:35:00
8:55 PM,48.2,48.2,100,30.07,10.0,East,4.6,-,N/A,,Overcast,100,2013-05-22 00:55:00
9:15 PM,48.2,48.2,100,30.08,10.0,ESE,3.5,-,N/A,,Overcast,110,2013-05-22 01:15:00
9:35 PM,48.2,48.2,100,30.09,10.0,SE,3.5,-,N/A,,Overcast,140,2013-05-22 01:35:00
9:55 PM,48.2,48.2,100,30.07,10.0,ESE,6.9,-,N/A,,Overcast,120,2013-05-22 01:55:00
10:15 PM,48.2,48.2,100,30.06,10.0,East,5.8,-,N/A,,Overcast,100,2013-05-22 02:15:00
10:35 PM,48.2,46.4,93,30.06,10.0,East,6.9,-,N/A,,Overcast,100,2013-05-22 02:35:00
10:55 PM,48.2,46.4,93,30.06,10.0,East,6.9,-,N/A,,Overcast,100,2013-05-22 02:55:00
11:15 PM,48.2,46.4,93,30.05,9.0,ESE,3.5,-,N/A,,Overcast,110,2013-05-22 03:15:00
11:35 PM,48.2,46.4,93,30.05,1.2,East,6.9,-,N/A,,Overcast,100,2013-05-22 03:35:00
11:55 PM,48.2,46.4,93,30.05,0.8,East,3.5,-,N/A,,Overcast,90,2013-05-22 03:55:00